Regional Weather Roundup
Issued by NWS

Home | Current Version | Previous Version | Graphics & Text | Print | Product List | Glossary On
Versions: 1 2 3 4 5 6 7 8 9 10 11 12 13 14 15 16 17 18 19 20 21 22 23 24 25 26 27 28 29 30 31 32 33 34 35 36 37 38 39 40 41 42 43 44 45 46 47 48 49 50
072
ASUS43 KFSD 291410
RWRSD

WEATHER ROUNDUP FOR SOUTH DAKOTA
NATIONAL WEATHER SERVICE SIOUX FALLS SD
900 AM CDT MON MAY 29 2017

NOTE: "FAIR" INDICATES FEW OR NO CLOUDS BELOW 12,000 FEET WITH NO
SIGNIFICANT WEATHER AND/OR OBSTRUCTIONS TO VISIBILITY.


SDZ001>005-009-010-012>017-291500-
NORTHWEST AND NORTH CENTRAL SOUTH DAKOTA

CITY           SKY/WX    TMP DP  RH WIND       PRES   REMARKS
BUFFALO          N/A     54  37  52 NW16      30.10R
FAITH            N/A     53  40  61 NW15      30.11S
MOBRIDGE       MOSUNNY   56  42  59 NW23      30.02R
$$

SDZ012>016-024>037-041>051-057-063-072>074-291500-
SOUTHWEST AND SOUTH CENTRAL SOUTH DAKOTA

CITY           SKY/WX    TMP DP  RH WIND       PRES   REMARKS
RAPID CTY ARPT SUNNY     57  37  47 N12       30.16R
PIERRE         SUNNY     57  40  52 NW24      30.06R
CUSTER         SUNNY     51  25  36 NW15G26   30.19S
ELLSWORTH AFB  SUNNY     57  35  44 NW12      30.15S
PHILIP         SUNNY     58  40  51 NW12      30.11F
PINE RIDGE     SUNNY     52  47  83 CALM      30.17S
SPEARFISH      FAIR      54  34  47 NW10      30.19R
WINNER         FAIR      57  43  59 NW16      30.08R
$$

SDZ004>011-016>023-039-040-291500-
NORTHEAST SOUTH DAKOTA

CITY           SKY/WX    TMP DP  RH WIND       PRES   REMARKS
ABERDEEN       SUNNY     57  44  62 NW21G28   29.94S
WATERTOWN      CLOUDY    51  45  79 NW15      29.91R
BROOKINGS      CLOUDY    52  46  80 NW22G28   29.93R
SISSETON         N/A     55  48  77 N18G25    29.88R
$$

SDZ017-020-022-023-036>040-048>070-291500-
SOUTHEAST SOUTH DAKOTA

CITY           SKY/WX    TMP DP  RH WIND       PRES   REMARKS
SIOUX FALLS    MOSUNNY   57  47  69 NW16G24   29.95R
HURON          MOSUNNY   57  45  64 NW23G30   29.98R
CHAMBERLAIN    SUNNY     58  44  59 NW17G23   30.05R
MITCHELL       SUNNY     59  44  57 NW20      30.00R
YANKTON        SUNNY     59  45  59 NW15      30.01R
$$

ABBREVIATIONS USED IN REMARKS
   TC - TEMPERATURE IN CELSIUS
  WCI - WIND CHILL INDEX
   HX - HEAT INDEX
  VSB - VISIBILITY





USA.gov is the U.S. government's official web portal to all federal, state and local government web resources and services.